{"data":{"norad_id":59015,"epoch":"2026-05-25T04:49:50.973888Z","epoch_age_seconds":53572,"freshness":"FRESH","line1":"1 59015U 24036T   26145.20128442  .00000610  00000+0  32728-4 0  9998","line2":"2 59015  53.1612  83.0090 0001224  98.5076 261.6064 15.30193049127037","mean_motion":15.30193049,"eccentricity":0.0001224,"inclination_deg":53.1612,"raan_deg":83.009,"arg_perigee_deg":98.5076,"mean_anomaly_deg":261.6064,"bstar":3.2728e-5,"rev_number":12703,"period_min":94.105773186008,"perigee_km":474.39697109731,"apogee_km":476.07467676461,"semimajor_km":6853.372823931,"source":"CELESTRAK","updated_at":"2026-05-25T13:38:18.820786Z"}}